DW9768 Weather Reports


time (UTC)temp
F
wind
direction
speed
knots
gust
knots
rain 1hr
in
rain 24hr
in
rain mn
in
humidity
%
barometer
mb
20260508010017 44 117 1.7 4.3 0.00 0.00 0.00 75 1018.4
20260508004532 44 117 0.9 5.2 0.00 0.00 0.00 75 1018.3
20260508003021 44 109 2.6 5.2 0.00 0.00 0.00 73 1018.4
20260508001518 44 159 1.7 4.3 0.00 0.00 0.00 75 1018.3
20260508000013 44 171 0.9 3.5 0.00 0.00 0.00 75 1018.4
20260507234514 44 202 2.6 4.3 0.00 0.00 0.00 75 1018.4
20260507233022 44 154 2.6 4.3 0.00 0.00 0.00 75 1018.4
20260507231510 44 149 2.6 4.3 0.00 0.00 0.00 74 1018.5
20260507230109 44 158 1.7 4.3 0.00 0.00 0.00 74 1018.5
20260507224506 44 150 0.9 4.3 0.00 0.00 0.00 72 1018.5
20260507223004 45 195 2.6 5.2 0.00 0.00 0.00 72 1018.4
20260507221505 45 207 4.3 5.2 0.00 0.00 0.00 71 1018.4
20260507220058 45 198 3.5 5.2 0.00 0.00 0.00 70 1018.4
20260507214618 45 193 2.6 4.3 0.00 0.00 0.00 68 1018.4
20260507213107 45 173 1.7 3.5 0.00 0.00 0.00 68 1018.3
20260507211615 45 211 2.6 4.3 0.00 0.00 0.00 67 1018.2
20260507210056 46 223 3.5 5.2 0.00 0.00 0.00 67 1018.2
20260507204606 46 226 4.3 6.1 0.00 0.00 0.00 67 1018.2
20260507203059 46 229 5.2 7.0 0.00 0.00 0.00 65 1018.2
20260507201552 46 225 4.3 6.1 0.00 0.00 0.00 65 1018.1
20260507200050 46 238 4.3 6.1 0.00 0.00 0.00 61 1017.9
20260507194616 47 252 4.3 7.0 0.00 0.00 0.00 65 1017.8
20260507193046 47 244 5.2 7.0 0.00 0.00 0.00 63 1017.7
20260507191550 46 261 0.9 2.6 0.00 0.00 0.00 63 1017.5
20260507190044 47 298 0.0 1.7 0.00 0.00 0.00 58 1017.4
20260507184644 47 280 0.9 2.6 0.00 0.00 0.00 56 1017.4
20260507183043 48 250 1.7 4.3 0.00 0.00 0.00 53 1017.3
20260507181543 49 277 2.6 4.3 0.00 0.00 0.00 51 1017.2
20260507180041 49 275 2.6 6.1 0.00 0.00 0.00 49 1017.1
20260507174547 49 243 2.6 6.1 0.00 0.00 0.00 52 1017.1
20260507173041 49 244 3.5 7.0 0.00 0.00 0.00 49 1017.2
20260507171546 49 284 3.5 7.8 0.00 0.00 0.00 46 1017.0
20260507170040 49 271 4.3 7.0 0.00 0.00 0.00 56 1017.1
20260507164537 49 286 5.2 7.0 0.00 0.00 0.00 60 1017.0
20260507163036 49 275 4.3 7.8 0.00 0.00 0.00 62 1017.1
20260507161539 49 259 4.3 7.8 0.00 0.00 0.00 59 1017.1
20260507160035 48 249 5.2 8.7 0.00 0.00 0.00 66 1017.1
20260507154536 48 265 5.2 7.8 0.00 0.00 0.00 66 1017.2
20260507153040 49 253 6.1 8.7 0.00 0.00 0.00 65 1017.1
20260507151533 49 269 6.1 8.7 0.00 0.00 0.00 64 1017.2
20260507150032 48 267 7.0 9.6 0.00 0.00 0.00 67 1017.2
20260507144532 48 253 6.1 10.4 0.00 0.00 0.00 66 1017.1
20260507143030 48 259 7.0 12.2 0.00 0.00 0.00 66 1017.2
20260507141529 48 263 7.8 11.3 0.00 0.00 0.00 66 1017.2
20260507140026 49 266 5.2 12.2 0.00 0.00 0.00 66 1017.3
20260507134526 48 275 8.7 12.2 0.00 0.00 0.00 64 1017.2
20260507133025 48 290 6.1 12.2 0.00 0.00 0.00 59 1017.3
20260507131525 48 298 7.0 10.4 0.00 0.00 0.00 57 1017.5
20260507130032 49 301 6.1 10.4 0.00 0.00 0.00 59 1017.4
20260507124526 48 290 7.0 10.4 0.00 0.00 0.00 58 1017.4
20260507123019 49 293 6.1 9.6 0.00 0.00 0.00 56 1017.3
20260507121518 48 273 7.0 9.6 0.00 0.00 0.00 52 1017.4
20260507120021 48 295 7.0 10.4 0.00 0.00 0.00 53 1017.4
20260507114514 48 282 6.1 10.4 0.00 0.00 0.00 54 1017.4
20260507113012 48 264 6.1 11.3 0.00 0.00 0.00 57 1017.5
20260507111513 48 269 7.0 11.3 0.00 0.00 0.00 55 1017.5
20260507110009 49 306 5.2 8.7 0.00 0.00 0.00 53 1017.6
20260507104506 49 342 5.2 9.6 0.00 0.00 0.00 54 1017.5
20260507103008 48 321 4.3 9.6 0.00 0.00 0.00 56 1017.6
20260507101503 48 325 5.2 9.6 0.00 0.00 0.00 55 1017.4
20260507100100 48 320 2.6 8.7 0.00 0.00 0.00 50 1017.4
20260507094558 47 310 5.2 8.7 0.00 0.00 0.00 53 1017.4
20260507093101 47 312 3.5 7.0 0.00 0.00 0.00 50 1017.4
20260507091556 46 332 6.1 8.7 0.00 0.00 0.00 53 1017.4
20260507090156 46 346 2.6 8.7 0.00 0.00 0.00 53 1017.5
20260507084555 46 325 6.1 8.7 0.00 0.00 0.00 52 1017.5
20260507083053 46 24 1.7 6.1 0.00 0.00 0.00 57 1017.4
20260507081554 46 344 3.5 7.8 0.00 0.00 0.00 55 1017.3
20260507080058 46 351 1.7 6.1 0.00 0.00 0.00 60 1017.2
20260507074550 47 94 0.9 4.3 0.00 0.00 0.00 60 1017.2
20260507073046 46 146 0.9 5.2 0.00 0.00 0.00 62 1017.2
20260507071602 46 59 0.9 6.1 0.00 0.00 0.00 64 1017.3
20260507070040 46 102 0.9 3.5 0.00 0.00 0.00 63 1017.1
20260507064536 44 94 1.7 5.2 0.00 0.00 0.00 65 1017.1
20260507063037 44 34 0.9 3.5 0.00 0.00 0.00 67 1017.0
20260507061530 43 80 0.0 2.6 0.00 0.00 0.00 75 1016.9
20260507060025 42 21 0.0 1.7 0.00 0.00 0.00 77 1016.9
20260507054523 41 5 0.0 3.5 0.00 0.00 0.00 77 1016.8
20260507053022 41 45 0.0 0.0 0.00 0.00 0.00 79 1016.9
20260507051529 40 340 0.0 0.0 0.00 0.00 0.00 78 1016.8
20260507050022 39 333 0.0 0.0 0.00 0.00 0.00 79 1016.7
20260507044521 39 331 0.0 0.0 0.00 0.00 0.00 81 1016.6
20260507043018 38 355 0.0 0.0 0.00 0.00 0.00 82 1016.6
20260507041517 38 355 0.0 0.9 0.00 0.00 0.00 81 1016.4
20260507040017 38 355 0.0 1.7 0.00 0.00 0.00 81 1016.5
20260507034529 38 335 0.9 3.5 0.00 0.00 0.00 80 1016.4
20260507033029 38 326 0.9 3.5 0.00 0.00 0.00 81 1016.4
20260507031514 37 327 0.0 0.0 0.00 0.00 0.00 83 1016.3
20260507030013 37 327 0.0 0.0 0.00 0.00 0.00 83 1016.4
20260507024513 37 327 0.0 1.7 0.00 0.00 0.00 82 1016.3
20260507023020 37 327 0.0 0.0 0.00 0.00 0.00 82 1016.2
20260507021510 37 327 0.0 2.6 0.00 0.00 0.00 82 1016.2
20260507020012 37 342 0.0 3.5 0.00 0.00 0.00 82 1016.2
20260507014512 38 321 1.7 4.3 0.00 0.00 0.00 80 1016.2
20260507013007 37 321 2.6 4.3 0.00 0.00 0.00 82 1016.0
20260507011505 37 329 2.6 4.3 0.00 0.00 0.00 80 1016.1